Weather History for Twenthe, Netherlands

Change the Weather History Date:

Saturday, February 22, 2014

  Actual Average Record
Temperature  
Mean Temperature 42 °F -  
Max Temperature 47 °F 43 °F 53 °F (2007)
Min Temperature 38 °F 32 °F 22 °F (2013)
Degree Days  
Heating Degree Days 22    
Moisture  
Dew Point 37 °F    
Average Humidity 75    
Maximum Humidity 84    
Minimum Humidity 64    
Precipitation  
Precipitation 0.00 in - - ()
Sea Level Pressure  
Sea Level Pressure 29.87 in    
Wind  
Wind Speed 10 mph ()    
Max Wind Speed 16 mph    
Max Gust Speed -    
Visibility 17.3 miles    
Events Rain    
Averages and records for this station are not official NWS values.
T = Trace of Precipitation, MM = Missing Value Source: Averaged Metar Reports

Daily Weather History Graph

Daily Weather History Graph

Search for Another Location

Airport:

Trip Planner

Search our weather history database for the weather conditions in past years. The results will help you decide how hot, cold, wet, or windy it might be!

Date:

Astronomy

Feb. 22, 2014 Rise Set
Actual Time 7:34 AM CET 5:58 PM CET
Civil Twilight 6:59 AM CET 6:33 PM CET
Nautical Twilight 6:20 AM CET 7:12 PM CET
Astronomical Twilight 5:40 AM CET 7:51 PM CET
Moon 1:29 AM CET (2/22) 10:38 AM CET (2/22)
Length of Visible Light 11h 33m
Length of Day
10h 24m
Waning Gibbous, 53% of the Moon is Illuminated
Feb 22
Waning Gibbous
Feb 22
Last Quarter
Mar 1
New
Mar 8
First Quarter
Mar 16
Full

Hourly Weather History & Observations

Time (CET) Temp. Dew Point Humidity Pressure Visibility Wind Dir Wind Speed Gust Speed Precip Events Conditions
12:00 AM 40 °F 35 °F 75% 29.79 in 25 mi South 11.2 mph - -  
1:00 AM 40 °F 35 °F 75% 29.78 in 22 mi South 11.2 mph - -   Partly Cloudy
2:00 AM 40 °F 34 °F 73% 29.78 in 25 mi South 13.4 mph - -  
3:00 AM 40 °F 34 °F 72% 29.77 in 25 mi SSW 15.7 mph - -  
4:00 AM 40 °F 34 °F 71% 29.78 in 25 mi South 11.2 mph - -  
5:00 AM 40 °F 34 °F 72% 29.77 in 25 mi South 11.2 mph - -  
6:00 AM 39 °F 34 °F 76% 29.78 in 28 mi South 11.2 mph - -  
7:00 AM 39 °F 34 °F 76% 29.78 in 25 mi South 13.4 mph - -   Partly Cloudy
8:00 AM 39 °F 34 °F 77% 29.79 in 22 mi SSW 13.4 mph - -   Scattered Clouds
9:00 AM 40 °F 35 °F 77% 29.82 in 17 mi SSW 13.4 mph - -   Overcast
10:00 AM 40 °F 37 °F 84% 29.83 in 19 mi SSW 13.4 mph - - Rain Rain
11:00 AM 42 °F 38 °F 81% 29.85 in 16 mi SSW 11.2 mph - -   Partly Cloudy
12:00 PM 43 °F 38 °F 77% 29.86 in 15 mi SSW 13.4 mph - -   Partly Cloudy
1:00 PM 45 °F 40 °F 75% 29.88 in 17 mi SSW 11.2 mph - -   Partly Cloudy
2:00 PM 45 °F 39 °F 72% 29.89 in 18 mi SSW 11.2 mph - -   Overcast
3:00 PM 47 °F 40 °F 69% 29.90 in 16 mi SSW 11.2 mph - -   Overcast
4:00 PM 47 °F 39 °F 64% 29.92 in 19 mi SSW 11.2 mph - -   Overcast
5:00 PM 46 °F 38 °F 67% 29.93 in 17 mi SSW 11.2 mph - -   Overcast
6:00 PM 45 °F 39 °F 71% 29.95 in 19 mi SSW 11.2 mph - -   Overcast
7:00 PM 43 °F 38 °F 75% 29.98 in 16 mi SSW 8.9 mph - -   Partly Cloudy
8:00 PM 43 °F 38 °F 75% 30.00 in 17 mi SSW 8.9 mph - -   Partly Cloudy
9:00 PM 42 °F 37 °F 78% 30.01 in 15 mi South 8.9 mph - -   Scattered Clouds
10:00 PM 41 °F 37 °F 79% 30.04 in 19 mi South 11.2 mph - -  
11:00 PM 40 °F 36 °F 82% 30.05 in 19 mi SSW 11.2 mph - -   Scattered Clouds